Location: Igon
(43.1667°N, 0.2333°W)
Time: 19:48:22
(UTC+00:00)

FALCON 9 DEB - Pass Details

Date: 29 November 2020
Orbit: 376 x 396 km, 53.0° (Epoch: 21 January)

Event Time Altitude Azimuth Distance (km) Brightness Sun altitude
Exits shadow 05:22:17 44° 8° (N) 557 3.5 -19.3°
Drops below altitude 10° 05:24:53 10° 47° (NE) 1,445 6.2 -18.9°
Sets 05:27:00 0° 52° (NE) 2,310 7.4 -18.5°
